XW-2B                   
1 40911U 15049N   20196.08018000  .00000289  00000-0  18363-4 0  9993
2 40911  97.4763 197.4442 0012370 282.1182 148.0597 15.16263243266204
KAITUO 1B               
1 40912U 15049P   20196.28356125  .00000728  00000-0  36549-4 0  9993
2 40912  97.4480 203.7374 0013104 242.6555 248.6292 15.20387170266791
TIANWANG 1C (TW-1C)     
1 40926U 15051B   20196.13114039  .00014234  00000-0  13629-3 0  9991
2 40926  97.0816 248.0955 0004788   8.0201  17.6590 15.66769734271209
TIANWANG 1A (TW-1A)     
1 40928U 15051D   20196.05044389  .00001867  00000-0  44532-4 0  9990
2 40928  97.1077 223.2331 0012476  91.2249 297.6410 15.42729733269479
LAPAN-A2                
1 40931U 15052B   20195.28516573  .00000631  00000-0 -13509-5 0  9998
2 40931   5.9993 151.1495 0013792 287.1174  72.7594 14.76638169259081
E-ST@R-II               
1 41459U 16025D   20196.09787378  .00001072  00000-0  57271-4 0  9990
2 41459  98.1075 307.4800 0166227 121.9087 239.8417 15.06496218231450
AAUSAT 4                
1 41460U 16025E   20196.06147029  .00002186  00000-0  10907-3 0  9993
2 41460  98.1057 309.8649 0154634 110.6061 251.1845 15.08836801231657
NUSAT-1 (FRESCO)        
1 41557U 16033B   20196.03154674  .00000698  00000-0  28163-4 0  9990
2 41557  97.4040 286.0835 0013368   1.4148 358.7127 15.28071459229838
BEESAT-4                
1 41619U 16040W   20195.62275019  .00000917  00000-0  40584-4 0  9993
2 41619  97.3177 254.5363 0012859  88.3488 271.9223 15.24068354213380
CAS-2T & KS-1Q          
1 41847U 16066G   20196.06440119  .00000039  00000-0  15644-4 0  9992
2 41847  98.6519 246.8476 0366359 149.4952 212.8114 14.38077145193245
NAYIF-1 (EO-88)         
1 42017U 17008BX  20195.83476570  .00000940  00000-0  38723-4 0  9997
2 42017  97.3585 263.0115 0005072 215.2329 144.8575 15.26557215189572
MAX VALIER SAT          
1 42778U 17036P   20196.08932244  .00000539  00000-0  26086-4 0  9998
2 42778  97.3030 248.9865 0010457 291.6264  68.3859 15.22658543169782
RADFXSAT (FOX-1B)       
1 43017U 17073E   20195.70753458  .00000347  00000-0  32881-4 0  9999
2 43017  97.7216 106.9301 0256087 325.1413  33.3252 14.78968259143045
FOX-1D (AO-92)          
1 43137U 18004AC  20195.87645532  .00000604  00000-0  27750-4 0  9993
2 43137  97.4446 266.8578 0008180 332.6240  27.4565 15.24164168139070
DIWATA-2B               
1 43678U 18084H   20196.03864785  .00000380  00000-0  43483-4 0  9995
2 43678  97.8882 314.4457 0011408  89.4459 270.8049 14.91641418 92980
ES'HAIL 2               
1 43700U 18090A   20195.72507613  .00000149  00000-0  00000-0 0  9994
2 43700   0.0113 324.9998 0001563 187.8275  66.0531  1.00273549  5971
FOX-1CLIFF (AO-95)      
1 43770U 18099N   20196.01338308  .00000585  00000-0  58565-4 0  9993
2 43770  97.7047 266.9300 0016186 107.2783 253.0210 14.95004520 87887
ITASAT 1                
1 43786U 18099AE  20195.66972409  .00000326  00000-0  34672-4 0  9992
2 43786  97.7062 267.0307 0016763 102.7154 257.5942 14.95339608 87859
JY1SAT (JO-97)          
1 43803U 18099AX  20195.68114382  .00000634  00000-0  62229-4 0  9993
2 43803  97.7023 266.8545 0016840 102.8889 257.4214 14.95521020 87851
PSAT2 (NO-104)          
1 44354U 19036R   20195.74044879  .00006595  00000-0  92955-4 0  9998
2 44354  28.5309 207.9303 0362877 231.7935 124.9449 15.03788224 57786
BRICSAT2 (NO-103)       
1 44355U 19036S   20195.71886509  .00012620  00000-0  17338-3 0  9997
2 44355  28.5312 197.9819 0340567 247.9629 108.4458 15.09424779 57888
JAISAT-1                
1 44419U 19038F   20195.81469496  .00000545  00000-0  34605-4 0  9993
2 44419  97.5400 157.1039 0022807  43.1041 317.1970 15.12814245 56582
DUCHIFAT-3              
1 44854U 19089C   20196.00434049  .00000141  00000-0  17832-4 0  9995
2 44854  36.9686 301.4423 0009683 283.0135  76.9533 14.99082543 32283
RS-44 & BREEZE-KM R/B   
1 44909U 19096E   20195.62810097  .00000033  00000-0  84222-4 0  9999
2 44909  82.5227 337.9182 0217780 165.0438 195.7243 12.79708220 25533
ORBITAL FACTORY 2 (OF-2)
1 45113U 19071C   20195.48792308  .00000524  00000-0  27563-4 0  9998
2 45113  51.6432 237.7762 0013203 149.7978 210.3767 15.33426092 25126
HUSKYSAT-1              
1 45119U 19071J   20195.72334643  .00000772  00000-0  34890-4 0  9991
2 45119  51.6427 236.3490 0012502 146.8963 213.2804 15.33637356 25156
